• Join FlightAware (Why Join?)
  • Login
  • US Flag 
04:16PM EDT


 

Airport Tracker/Info


-or-


 

Live Flight TrackerFlight Track Log ✈ UAL33 ✈ 20-Apr-2013 ✈ KLAX - KJFK

Flight Track Log - Related Links

Times and Time Zones

All times are in EDT time to prevent confusion due to time zone crossing. See the UAL33 flight status page for this flight to view local times or setup timezone preferences in your user account.

Time Position Orientation Groundspeed Altitude Reporting Facility
EDT Latitude Longitude Course Direction KTS MPH feet Rate Location/Type
03:03PM 33.9420 -118.4120 264° West 161 185 800  Level FlightAware
03:04PM 33.9400 -118.4390 265° West 198 228 1,500 1,800 Climbing FlightAware
03:04PM 33.9350 -118.4700 259° West 217 250 2,500 1,920 Climbing FlightAware
03:04PM 33.9240 -118.5020 248° West 248 285 3,300 2,280 Climbing FlightAware
03:05PM 33.9060 -118.5410 241° Southwest 274 315 4,600 2,760 Climbing FlightAware
03:05PM 33.8890 -118.5520 208° Southwest 275 316 5,400 2,640 Climbing FlightAware
03:05PM 33.8810 -118.5540 192° South 277 319 5,700 2,580 Climbing FlightAware
03:06PM 33.8540 -118.5470 168° South 280 322 6,700 2,760 Climbing FlightAware
03:06PM 33.8450 -118.5380 140° Southeast 281 323 7,100 2,640 Climbing FlightAware
03:06PM 33.8340 -118.5170 122° Southeast 282 325 7,800 2,760 Climbing FlightAware
03:06PM 33.8340 -118.4890 90° East 282 325 8,500 2,400 Climbing FlightAware
03:07PM 33.8410 -118.4730 62° Northeast 281 323 9,000 2,580 Climbing FlightAware
03:07PM 33.8580 -118.4550 41° Northeast 279 321 9,800 2,280 Climbing FlightAware
03:08PM 33.9110 -118.4400 13° North 307 353 11,100 1,740 Climbing FlightAware
03:08PM 33.9340 -118.4290 22° Northeast 330 380 11,400 1,800 Climbing FlightAware
03:08PM 33.9520 -118.4090 43° Northeast 344 396 12,000 2,400 Climbing FlightAware
03:09PM 33.9900 -118.3420 56° Northeast 363 418 13,600 2,460 Climbing FlightAware
03:09PM 34.0270 -118.2750 56° Northeast 371 427 15,300 2,400 Climbing FlightAware
03:10PM 34.0670 -118.2050 55° Northeast 380 437 17,000 2,640 Climbing FlightAware
03:11PM 34.1210 -118.1090 56° Northeast 395 455 19,100 2,760 Climbing FlightAware
03:11PM 34.1630 -118.0350 56° Northeast 403 464 20,700 2,040 Climbing FlightAware
03:12PM 34.2110 -117.9500 56° Northeast 417 480 22,000 1,800 Climbing FlightAware
03:13PM 34.2540 -117.8730 56° Northeast 423 487 23,300 1,800 Climbing FlightAware
03:14PM 34.3040 -117.7830 56° Northeast 435 501 24,600 1,620 Climbing FlightAware
03:14PM 34.3500 -117.7000 56° Northeast 450 518 25,600 1,740 Climbing FlightAware
03:15PM 34.4060 -117.6060 54° Northeast 450 518 27,100 1,800 Climbing FlightAware
03:16PM 34.4500 -117.5400 51° Northeast 455 524 28,000 1,560 Climbing FlightAware
03:16PM 34.5140 -117.4500 49° Northeast 460 529 29,200 1,440 Climbing FlightAware
03:17PM 34.5740 -117.3660 49° Northeast 465 535 30,200 1,440 Climbing FlightAware
03:18PM 34.6330 -117.2840 49° Northeast 469 540 31,300 1,620 Climbing FlightAware
03:18PM 34.6910 -117.2020 49° Northeast 466 536 32,400 1,080 Climbing FlightAware
03:19PM 34.7410 -117.1310 49° Northeast 466 536 32,800 720 Climbing FlightAware
03:20PM 34.8000 -117.0480 49° Northeast 465 535 33,500 1,680 Climbing FlightAware
03:21PM 34.8860 -116.9240 50° Northeast 468 539 35,600 1,380 Climbing FlightAware
03:21PM 34.9360 -116.8530 49° Northeast 468 539 35,700 600 Climbing FlightAware
03:22PM 35.0230 -116.7280 50° Northeast 475 547 36,600 540 Climbing FlightAware
03:23PM 35.0720 -116.6590 49° Northeast 475 547 36,600 300 Level FlightAware
03:24PM 35.1390 -116.5600 50° Northeast 482 555 37,000 240 Climbing FlightAware
03:25PM 35.2060 -116.4620 50° Northeast 479 551 37,000  Level FlightAware
03:25PM 35.2710 -116.3670 50° Northeast 477 549 37,000  Level FlightAware
03:26PM 35.3270 -116.2860 50° Northeast 476 548 37,000  Level FlightAware
03:27PM 35.3830 -116.2040 50° Northeast 476 548 37,000  Level FlightAware
03:27PM 35.4460 -116.1110 50° Northeast 473 544 37,000  Level FlightAware
03:28PM 35.5000 -116.0310 50° Northeast 471 542 37,000  Level FlightAware
03:29PM 35.5660 -115.9340 50° Northeast 470 541 37,000  Level FlightAware
03:29PM 35.6120 -115.8650 51° Northeast 469 540 37,000  Level FlightAware
03:30PM 35.6830 -115.7610 50° Northeast 468 539 37,000  Level FlightAware
03:31PM 35.7380 -115.6780 51° Northeast 467 537 37,000  Level FlightAware
03:32PM 35.7940 -115.5950 50° Northeast 466 536 37,000  Level FlightAware
03:32PM 35.8540 -115.5060 50° Northeast 463 533 37,000  Level FlightAware
03:33PM 35.9080 -115.4250 51° Northeast 462 532 37,000  Level FlightAware
03:34PM 35.9620 -115.3430 51° Northeast 463 533 37,000  Level FlightAware
03:34PM 36.0250 -115.2490 50° Northeast 466 536 37,000  Level FlightAware
03:35PM 36.0780 -115.1650 52° Northeast 476 548 37,000  Level FlightAware
03:36PM 36.1190 -115.0540 65° Northeast 493 567 37,000  Level FlightAware
03:36PM 36.1520 -114.9470 69° East 494 568 37,000  Level FlightAware
03:37PM 36.1830 -114.8420 70° East 495 570 37,000  Level FlightAware
03:38PM 36.2200 -114.7210 69° East 495 570 37,000  Level FlightAware
03:39PM 36.2530 -114.6140 69° East 495 570 37,000  Level FlightAware
03:39PM 36.2890 -114.4980 69° East 497 572 37,000  Level FlightAware
03:40PM 36.3210 -114.3920 69° East 496 571 37,000  Level FlightAware
03:41PM 36.3530 -114.2850 70° East 495 570 37,000  Level FlightAware
03:41PM 36.3900 -114.1640 69° East 495 570 37,000  Level FlightAware
03:42PM 36.4220 -114.0560 70° East 493 567 37,000  Level FlightAware
03:43PM 36.4570 -113.9400 69° East 495 570 37,000  Level FlightAware
03:43PM 36.4890 -113.8340 69° East 496 571 37,000  Level FlightAware
03:44PM 36.5260 -113.7100 70° East 496 571 37,000  Level FlightAware
03:45PM 36.5570 -113.6040 70° East 495 570 37,000  Level FlightAware
03:46PM 36.5890 -113.4950 70° East 494 568 37,000  Level FlightAware
03:46PM 36.6230 -113.3780 70° East 494 568 37,000  Level FlightAware
03:47PM 36.6540 -113.2720 70° East 496 571 37,000  Level FlightAware
03:48PM 36.6900 -113.1480 70° East 494 568 37,000  Level FlightAware
03:48PM 36.7210 -113.0430 70° East 494 568 37,000  Level FlightAware
03:49PM 36.7520 -112.9360 70° East 493 567 37,000  Level FlightAware
03:50PM 36.7860 -112.8160 70° East 493 567 37,000  Level FlightAware
03:50PM 36.8150 -112.7160 70° East 491 565 37,000  Level FlightAware
03:51PM 36.8470 -112.6050 70° East 490 564 37,000  Level FlightAware
03:52PM 36.8840 -112.4760 70° East 489 563 37,000  Level FlightAware
03:53PM 36.9160 -112.3630 70° East 489 563 37,000  Level FlightAware
03:53PM 36.9430 -112.2730 69° East 489 563 37,000  Level FlightAware
03:54PM 36.9690 -112.1820 70° East 489 563 37,000  Level FlightAware
03:55PM 36.9950 -112.0920 70° East 489 563 37,000  Level FlightAware
03:56PM 37.0280 -111.9790 70° East 489 563 37,000  Level FlightAware
03:56PM 37.0540 -111.8880 70° East 489 563 37,000  Level FlightAware
03:57PM 37.0810 -111.7980 69° East 489 563 37,000  Level FlightAware
03:58PM 37.1070 -111.7070 70° East 489 563 37,000  Level FlightAware
03:58PM 37.1330 -111.6160 70° East 489 563 37,000  Level FlightAware
03:59PM 37.1600 -111.5260 69° East 489 563 37,000  Level FlightAware
04:00PM 37.1930 -111.4120 70° East 489 563 37,000  Level FlightAware
04:00PM 37.2190 -111.3220 70° East 489 563 37,000  Level FlightAware
04:01PM 37.2450 -111.2310 70° East 489 563 37,000  Level FlightAware
04:02PM 37.3147 -110.8672 70° East 504 580 37,000  Level Denver Center
04:03PM 37.3594 -110.6992 71° East 507 583 37,000  Level Denver Center
04:04PM 37.4022 -110.5336 72° East 502 578 37,000  Level Denver Center
04:05PM 37.4456 -110.3686 72° East 497 572 37,000  Level Denver Center
04:06PM 37.4942 -110.1811 72° East 490 564 37,000  Level Denver Center
04:07PM 37.5342 -110.0250 72° East 490 564 37,000  Level Denver Center
04:08PM 37.5792 -109.8472 72° East 478 550 37,000  Level Denver Center
04:09PM 37.6186 -109.6958 72° East 475 547 37,000  Level Denver Center
04:10PM 37.6558 -109.5433 73° East 475 547 37,000  Level Denver Center
04:11PM 37.7011 -109.3653 72° East 477 549 37,000  Level Denver Center
04:12PM 37.7394 -109.2106 73° East 481 554 37,000  Level Denver Center
04:13PM 37.7847 -109.0289 72° East 484 557 37,000  Level Denver Center
04:14PM 37.8217 -108.8744 73° East 481 554 37,000  Level Denver Center
04:15PM 37.8547 -108.7142 75° East 487 560 37,000  Level Denver Center
04:16PM 37.8939 -108.5303 75° East 486 559 37,000  Level Denver Center
04:17PM 37.9269 -108.3700 75° East 487 560 37,000  Level Denver Center
04:18PM 37.9664 -108.1869 75° East 486 559 37,000  Level Denver Center
04:19PM 37.9992 -108.0244 76° East 492 566 37,000  Level Denver Center
04:20PM 38.0322 -107.8644 75° East 492 566 37,000  Level Denver Center
04:26PM 38.2324 -106.9170 75° East 487 560 37,000  Level FlightAware ADS-B
04:26PM 38.2494 -106.8300 76° East 487 560 37,000  Level FlightAware ADS-B
04:27PM 38.2661 -106.7440 76° East 487 560 37,000  Level FlightAware ADS-B
04:28PM 38.2827 -106.6580 76° East 486 559 37,000  Level FlightAware ADS-B
04:28PM 38.3002 -106.5680 76° East 486 559 37,000  Level FlightAware ADS-B
04:29PM 38.3206 -106.4610 76° East 485 558 37,000  Level FlightAware ADS-B
04:29PM 38.3368 -106.3770 76° East 484 557 37,000 240 Level FlightAware ADS-B
04:30PM 38.3538 -106.2870 76° East 487 560 37,300 780 Climbing FlightAware ADS-B
04:30PM 38.3728 -106.1860 76° East 489 563 37,900 1,080 Climbing FlightAware ADS-B
04:31PM 38.3915 -106.0860 77° East 487 560 38,600 780 Climbing FlightAware ADS-B
04:32PM 38.4109 -105.9830 76° East 489 563 38,900 300 Climbing FlightAware ADS-B
04:32PM 38.4267 -105.8980 77° East 489 563 39,000 60 Climbing FlightAware ADS-B
04:33PM 38.4425 -105.8130 77° East 488 562 39,000  Level FlightAware ADS-B
04:33PM 38.4581 -105.7290 77° East 491 565 39,000  Level FlightAware ADS-B
04:34PM 38.4738 -105.6430 77° East 496 571 39,000  Level FlightAware ADS-B
04:34PM 38.4897 -105.5570 77° East 497 572 39,000  Level FlightAware ADS-B
04:35PM 38.5052 -105.4720 77° East 495 570 39,000  Level FlightAware ADS-B
04:35PM 38.5208 -105.3860 77° East 496 571 39,000  Level FlightAware ADS-B
04:36PM 38.5364 -105.3000 77° East 496 571 39,000  Level FlightAware ADS-B
04:36PM 38.5519 -105.2130 77° East 497 572 39,000  Level FlightAware ADS-B
04:37PM 38.5677 -105.1250 77° East 497 572 39,000  Level FlightAware ADS-B
04:37PM 38.5831 -105.0380 77° East 497 572 39,000  Level FlightAware ADS-B
04:38PM 38.5984 -104.9510 77° East 498 573 39,000  Level FlightAware ADS-B
04:38PM 38.6137 -104.8660 77° East 498 573 39,000  Level FlightAware ADS-B
04:39PM 38.6291 -104.7770 77° East 497 572 39,000  Level FlightAware ADS-B
04:39PM 38.6526 -104.6420 77° East 497 572 39,000  Level FlightAware ADS-B
04:40PM 38.6688 -104.5490 77° East 496 571 39,000  Level FlightAware ADS-B
04:41PM 38.6895 -104.4290 78° East 496 571 39,000  Level FlightAware ADS-B
04:41PM 38.7045 -104.3410 78° East 496 571 39,000  Level FlightAware ADS-B
04:42PM 38.7194 -104.2540 78° East 496 571 39,000  Level FlightAware ADS-B
04:42PM 38.7343 -104.1660 78° East 496 571 39,000  Level FlightAware ADS-B
04:43PM 38.7491 -104.0790 78° East 497 572 39,000  Level FlightAware ADS-B
04:43PM 38.7637 -103.9910 78° East 498 573 39,000  Level FlightAware ADS-B
04:44PM 38.7783 -103.9040 78° East 498 573 39,000  Level FlightAware ADS-B
04:44PM 38.7929 -103.8170 78° East 498 573 39,000  Level FlightAware ADS-B
04:45PM 38.8075 -103.7280 78° East 498 573 39,000  Level FlightAware ADS-B
04:45PM 38.8173 -103.6670 78° East 498 573 39,000  Level FlightAware ADS-B
04:46PM 38.8257 -103.5780 83° East 500 575 39,000  Level FlightAware ADS-B
04:46PM 38.8289 -103.4890 87° East 501 577 39,000  Level FlightAware ADS-B
04:47PM 38.8310 -103.4000 88° East 501 577 39,000  Level FlightAware ADS-B
04:47PM 38.8331 -103.3010 88° East 502 578 39,000  Level FlightAware ADS-B
04:48PM 38.8349 -103.2050 89° East 502 578 39,000  Level FlightAware ADS-B
04:48PM 38.8369 -103.1150 88° East 501 577 39,000  Level FlightAware ADS-B
04:49PM 38.8385 -103.0250 89° East 501 577 39,000  Level FlightAware ADS-B
04:49PM 38.8403 -102.9360 88° East 500 575 39,000  Level FlightAware ADS-B
04:50PM 38.8420 -102.8470 89° East 500 575 39,000  Level FlightAware ADS-B
04:50PM 38.8437 -102.7580 89° East 499 574 39,000  Level FlightAware ADS-B
04:51PM 38.8452 -102.6680 89° East 498 573 39,000  Level FlightAware ADS-B
04:51PM 38.8468 -102.5770 89° East 497 572 39,000  Level FlightAware ADS-B
04:52PM 38.8482 -102.4850 89° East 496 571 39,000  Level FlightAware ADS-B
04:52PM 38.8495 -102.3980 89° East 494 568 39,000  Level FlightAware ADS-B
04:53PM 38.8509 -102.3070 89° East 493 567 39,000  Level FlightAware ADS-B
04:53PM 38.8521 -102.2190 89° East 492 566 39,000  Level FlightAware ADS-B
04:54PM 38.8533 -102.1310 89° East 491 565 39,000  Level FlightAware ADS-B
04:54PM 38.8543 -102.0410 89° East 490 564 39,000  Level FlightAware ADS-B
04:55PM 38.8554 -101.9530 89° East 490 564 39,000  Level FlightAware ADS-B
04:55PM 38.8562 -101.8660 89° East 489 563 39,000  Level FlightAware ADS-B
04:56PM 38.8571 -101.7790 89° East 490 564 39,000  Level FlightAware ADS-B
04:56PM 38.8580 -101.6900 89° East 490 564 39,000  Level FlightAware ADS-B
04:57PM 38.8588 -101.6030 89° East 490 564 39,000  Level FlightAware ADS-B
04:57PM 38.8595 -101.5160 89° East 490 564 39,000  Level FlightAware ADS-B
04:58PM 38.8531 -101.4617 89° East 494 568 39,000  Level Kansas City Center
04:58PM 38.8528 -101.3544 90° East 488 562 39,000  Level Denver Center
04:59PM 38.8536 -101.1589 90° East 490 564 39,000  Level Denver Center
05:00PM 38.8544 -100.9908 90° East 491 565 39,000  Level Denver Center
05:02PM 38.8547 -100.7925 90° East 496 571 39,000  Level Denver Center
05:03PM 38.8553 -100.6217 90° East 499 574 39,000  Level Denver Center
05:04PM 38.8550 -100.4528 90° East 495 570 39,000  Level Denver Center
05:05PM 38.8547 -100.2531 90° East 499 574 39,000  Level Denver Center
05:06PM 38.8542 -100.0831 90° East 498 573 39,000  Level Denver Center
05:07PM 38.8528 -99.9106 91° East 503 579 39,000  Level Denver Center
05:08PM 38.8519 -99.7117 90° East 500 575 39,000  Level Denver Center
05:09PM 38.8500 -99.5394 91° East 503 579 39,000  Level Denver Center
05:10PM 38.8486 -99.3419 90° East 497 572 39,000  Level Denver Center
05:10PM 38.8461 -99.2958 94° East 500 575 39,000  Level Kansas City Center
05:11PM 38.8558 -99.1158 86° East 506 582 39,000  Level Kansas City Center
05:12PM 38.8644 -98.9394 86° East 496 571 39,000  Level Kansas City Center
05:13PM 38.8761 -98.7264 86° East 496 571 39,000  Level Kansas City Center
05:14PM 38.8839 -98.5483 87° East 498 573 39,000  Level Kansas City Center
05:20PM 38.9430 -97.5580 87° East 501 577 39,000  Level FlightAware
05:20PM 38.9550 -97.4630 81° East 500 575 39,000  Level FlightAware
05:21PM 38.9730 -97.3440 79° East 500 575 39,000  Level FlightAware
05:22PM 38.9660 -97.3940 260° West 500 575 39,000  Level FlightAware
05:22PM 38.9810 -97.2940 79° East 500 575 39,000  Level FlightAware
05:23PM 39.0000 -97.1700 79° East 500 575 39,000  Level FlightAware
05:24PM 39.0150 -97.0710 79° East 500 575 39,000  Level FlightAware
05:25PM 39.0300 -96.9710 79° East 500 575 39,000  Level FlightAware
05:25PM 39.0450 -96.8720 79° East 500 575 39,000  Level FlightAware
05:26PM 39.0600 -96.7720 79° East 500 575 39,000  Level FlightAware
05:27PM 39.0780 -96.6480 79° East 500 575 39,000  Level FlightAware
05:27PM 39.0930 -96.5490 79° East 500 575 39,000  Level FlightAware
05:28PM 39.1420 -96.0460 83° East 501 577 39,000  Level FlightAware
05:29PM 39.1550 -95.9430 81° East 500 575 39,000  Level FlightAware
05:30PM 39.1544 -95.8478 81° East 501 577 39,000  Level Kansas City Center
05:31PM 39.1794 -95.6500 81° East 501 577 39,000  Level Kansas City Center
05:36PM 39.3080 -94.6610 81° East 493 567 39,000  Level FlightAware
05:37PM 39.3260 -94.5320 80° East 494 568 39,000  Level FlightAware
05:38PM 39.3420 -94.4120 80° East 495 570 39,000  Level FlightAware
05:38PM 39.3580 -94.2850 81° East 495 570 39,000  Level FlightAware
05:39PM 39.3730 -94.1680 81° East 496 571 39,000  Level FlightAware
05:40PM 39.3880 -94.0510 81° East 497 572 39,000  Level FlightAware
05:40PM 39.4060 -93.9140 80° East 497 572 39,000  Level FlightAware
05:41PM 39.4200 -93.7990 81° East 498 573 39,000  Level FlightAware
05:42PM 39.4350 -93.6810 81° East 498 573 39,000  Level FlightAware
05:43PM 39.4510 -93.5520 81° East 498 573 39,000  Level FlightAware
05:43PM 39.4650 -93.4350 81° East 497 572 39,000  Level FlightAware
05:44PM 39.4830 -93.2380 83° East 499 574 39,000  Level FlightAware
05:45PM 39.4940 -93.0890 84° East 500 575 39,000  Level FlightAware
05:46PM 39.5030 -92.9730 84° East 500 575 39,000  Level FlightAware
05:46PM 39.5130 -92.8510 84° East 500 575 39,000  Level FlightAware
05:47PM 39.5250 -92.6990 84° East 500 575 39,000  Level FlightAware
05:48PM 39.5350 -92.5590 85° East 501 577 39,000  Level FlightAware
05:49PM 39.5490 -92.3800 84° East 501 577 39,000  Level FlightAware
05:50PM 39.5570 -92.2590 85° East 501 577 39,000  Level FlightAware
05:51PM 39.5670 -92.1260 84° East 502 578 39,000  Level FlightAware
05:51PM 39.5760 -92.0030 85° East 502 578 39,000  Level FlightAware
05:52PM 39.5840 -91.8760 85° East 502 578 39,000  Level FlightAware
05:53PM 39.5930 -91.7550 84° East 502 578 39,000  Level FlightAware
05:53PM 39.6010 -91.6340 85° East 502 578 39,000  Level FlightAware
05:54PM 39.6100 -91.4980 85° East 502 578 39,000  Level FlightAware
05:55PM 39.6170 -91.3820 85° East 502 578 39,000  Level FlightAware
05:55PM 39.6260 -91.2430 85° East 503 579 39,000  Level FlightAware
05:56PM 39.6340 -91.1210 85° East 503 579 39,000  Level FlightAware
05:57PM 39.6410 -91.0020 86° East 503 579 39,000  Level FlightAware
05:57PM 39.6470 -90.9070 85° East 503 579 39,000  Level FlightAware
05:58PM 39.6560 -90.7490 86° East 504 580 39,000  Level FlightAware
05:59PM 39.6630 -90.6250 86° East 504 580 39,000  Level FlightAware
06:00PM 39.6710 -90.4860 86° East 505 581 39,000  Level FlightAware
06:00PM 39.6770 -90.3730 86° East 505 581 39,000  Level FlightAware
06:01PM 39.6850 -90.2360 86° East 505 581 39,000  Level FlightAware
06:02PM 39.6910 -90.1110 86° East 505 581 39,000  Level FlightAware
06:02PM 39.6980 -89.9830 86° East 506 582 39,000  Level FlightAware
06:03PM 39.7040 -89.8530 87° East 507 583 39,000  Level FlightAware
06:04PM 39.7100 -89.7370 86° East 508 585 39,000  Level FlightAware
06:05PM 39.7170 -89.5960 86° East 508 585 39,000  Level FlightAware
06:05PM 39.7230 -89.4790 86° East 508 585 39,000  Level FlightAware
06:06PM 39.7290 -89.3430 87° East 508 585 39,000  Level FlightAware
06:07PM 39.7350 -89.2180 86° East 508 585 39,000  Level FlightAware
06:07PM 39.7400 -89.0950 87° East 509 586 39,000  Level FlightAware
06:08PM 39.7460 -88.9590 87° East 509 586 39,000  Level FlightAware
06:09PM 39.7510 -88.8400 87° East 510 587 39,000  Level FlightAware
06:09PM 39.7560 -88.7170 87° East 509 586 39,000  Level FlightAware
06:10PM 39.7610 -88.5830 87° East 510 587 39,000  Level FlightAware
06:11PM 39.7660 -88.4550 87° East 510 587 39,000  Level FlightAware
06:12PM 39.7710 -88.3190 87° East 510 587 39,000  Level FlightAware
06:12PM 39.7750 -88.1960 88° East 511 588 39,000  Level FlightAware
06:13PM 39.7800 -88.0750 87° East 511 588 39,000  Level FlightAware
06:14PM 39.7840 -87.9380 88° East 511 588 39,000  Level FlightAware
06:14PM 39.7880 -87.8120 88° East 511 588 39,000  Level FlightAware
06:15PM 39.7930 -87.6750 87° East 511 588 39,000  Level FlightAware
06:16PM 39.7960 -87.5560 88° East 512 589 39,000  Level FlightAware
06:16PM 39.8010 -87.4110 87° East 512 589 39,000  Level FlightAware
06:17PM 39.8040 -87.3020 88° East 512 589 39,000  Level FlightAware
06:18PM 39.8070 -87.1650 88° East 513 590 39,000  Level FlightAware
06:19PM 39.8110 -87.0290 88° East 513 590 39,000  Level FlightAware
06:19PM 39.8140 -86.9060 88° East 513 590 39,000  Level FlightAware
06:20PM 39.8170 -86.7900 88° East 514 592 39,000  Level FlightAware
06:20PM 39.8190 -86.6720 89° East 514 592 39,000  Level FlightAware
06:21PM 39.8230 -86.5190 88° East 515 593 39,000  Level FlightAware
06:22PM 39.8290 -86.3840 87° East 516 594 39,000  Level FlightAware
06:23PM 39.8500 -86.2600 78° East 517 595 39,000  Level FlightAware
06:24PM 39.8770 -86.1190 76° East 517 595 39,000  Level FlightAware
06:24PM 39.9100 -85.9610 75° East 518 596 39,000  Level FlightAware
06:25PM 39.9350 -85.8390 75° East 518 596 39,000  Level FlightAware
06:26PM 39.9640 -85.7070 74° East 518 596 39,000  Level FlightAware
06:26PM 39.9820 -85.6180 75° East 519 597 39,000  Level FlightAware
06:27PM 40.0110 -85.4790 75° East 518 596 39,000  Level FlightAware
06:28PM 40.0410 -85.3350 75° East 518 596 39,000  Level FlightAware
06:29PM 40.0660 -85.2120 75° East 519 597 39,000  Level FlightAware
06:29PM 40.0910 -85.0870 75° East 520 598 39,000  Level FlightAware
06:30PM 40.1190 -84.9500 75° East 519 597 39,000  Level FlightAware
06:31PM 40.1430 -84.8290 75° East 518 596 39,000  Level FlightAware
06:31PM 40.1700 -84.6930 75° East 518 596 39,000  Level FlightAware
06:32PM 40.1940 -84.5730 75° East 518 596 39,000  Level FlightAware
06:33PM 40.2210 -84.4320 76° East 519 597 39,000  Level FlightAware
06:33PM 40.2410 -84.3310 75° East 519 597 39,000  Level FlightAware
06:34PM 40.2690 -84.1910 75° East 520 598 39,000  Level FlightAware
06:35PM 40.2960 -84.0560 75° East 519 597 39,000  Level FlightAware
06:36PM 40.3280 -83.9380 70° East 518 596 39,000  Level FlightAware
06:36PM 40.3660 -83.8050 69° East 518 596 39,000  Level FlightAware
06:37PM 40.4010 -83.6850 69° East 518 596 39,000  Level FlightAware
06:38PM 40.4340 -83.5670 70° East 518 596 39,000  Level FlightAware
06:38PM 40.4700 -83.4400 70° East 517 595 39,000  Level FlightAware
06:39PM 40.5040 -83.3210 69° East 517 595 39,000  Level FlightAware
06:40PM 40.5360 -83.2050 70° East 517 595 39,000  Level FlightAware
06:40PM 40.5740 -83.0690 70° East 516 594 39,000  Level FlightAware
06:41PM 40.6060 -82.9540 70° East 515 593 39,000  Level FlightAware
06:42PM 40.6420 -82.8240 70° East 515 593 39,000  Level FlightAware
06:43PM 40.6730 -82.7120 70° East 515 593 39,000  Level FlightAware
06:43PM 40.7050 -82.5960 70° East 514 592 39,000  Level FlightAware
06:44PM 40.7430 -82.4540 71° East 514 592 39,000  Level FlightAware
06:45PM 40.7760 -82.3330 70° East 515 593 39,000  Level FlightAware
06:45PM 40.8110 -82.2020 71° East 516 594 39,000  Level FlightAware
06:46PM 40.8440 -82.0820 70° East 516 594 39,000  Level FlightAware
06:47PM 40.8800 -81.9470 71° East 517 595 39,000  Level FlightAware
06:47PM 40.9120 -81.8270 71° East 518 596 39,000  Level FlightAware
06:48PM 40.9440 -81.7060 71° East 518 596 39,000  Level FlightAware
06:49PM 40.9780 -81.5770 71° East 520 598 39,000  Level FlightAware
06:50PM 41.0090 -81.4570 71° East 521 600 39,000  Level FlightAware
06:50PM 41.0460 -81.3160 71° East 521 600 39,000  Level FlightAware
06:51PM 41.0780 -81.1950 71° East 522 601 39,000  Level FlightAware
06:52PM 41.1080 -81.0760 71° East 521 600 39,000  Level FlightAware
06:52PM 41.1420 -80.9430 71° East 522 601 39,000  Level FlightAware
06:53PM 41.1730 -80.8230 71° East 522 601 39,000  Level FlightAware
06:54PM 41.2090 -80.6810 71° East 522 601 39,000  Level FlightAware
06:54PM 41.2400 -80.5600 71° East 523 602 39,000  Level FlightAware
06:55PM 41.2700 -80.4400 72° East 523 602 39,000  Level FlightAware
06:56PM 41.2980 -80.3270 72° East 524 603 39,000  Level FlightAware
06:57PM 41.3350 -80.1810 71° East 525 604 39,000  Level FlightAware
06:57PM 41.3650 -80.0590 72° East 524 603 39,000  Level FlightAware
06:58PM 41.4000 -79.9170 72° East 525 604 39,000  Level FlightAware
06:59PM 41.4290 -79.7970 72° East 525 604 39,000  Level FlightAware
06:59PM 41.4600 -79.6680 72° East 525 604 39,000  Level FlightAware
07:00PM 41.4910 -79.5420 72° East 525 604 39,000  Level FlightAware
07:01PM 41.5260 -79.3960 72° East 524 603 39,000  Level FlightAware
07:01PM 41.5530 -79.2840 72° East 526 605 39,000  Level FlightAware
07:02PM 41.5830 -79.1590 72° East 528 608 39,000  Level FlightAware
07:03PM 41.6140 -79.0250 73° East 529 609 39,000  Level FlightAware
07:04PM 41.6420 -78.8950 74° East 528 608 39,000  Level FlightAware
07:04PM 41.6570 -78.7680 81° East 526 605 39,000  Level FlightAware
07:05PM 41.6630 -78.6210 87° East 527 606 39,000  Level FlightAware
07:06PM 41.6670 -78.4950 88° East 528 608 39,000  Level FlightAware
07:06PM 41.6720 -78.3480 87° East 528 608 39,000  Level FlightAware
07:07PM 41.6760 -78.2160 88° East 528 608 39,000  Level FlightAware
07:08PM 41.6790 -78.0680 88° East 527 606 39,000  Level FlightAware
07:08PM 41.6820 -77.9420 88° East 526 605 39,000  Level FlightAware
07:09PM 41.6850 -77.8120 88° East 525 604 39,000  Level FlightAware
07:10PM 41.6880 -77.6620 88° East 522 601 39,000  Level FlightAware
07:11PM 41.6910 -77.5360 88° East 521 600 39,000  Level FlightAware
07:11PM 41.6940 -77.3920 88° East 518 596 39,000  Level FlightAware
07:12PM 41.6960 -77.2680 89° East 517 595 39,000  Level FlightAware
07:13PM 41.6900 -77.1340 93° East 501 577 39,000  Level FlightAware
07:13PM 41.6637 -77.0169 107° East 486 559 39,000  Level FlightAware ADS-B
07:14PM 41.6391 -76.9263 110° East 485 558 39,000  Level FlightAware ADS-B
07:14PM 41.6152 -76.8405 110° East 486 559 39,000  Level FlightAware ADS-B
07:15PM 41.5877 -76.7421 110° East 486 559 39,000  Level FlightAware ADS-B
07:15PM 41.5630 -76.6535 110° East 485 558 39,000  Level FlightAware ADS-B
07:16PM 41.5383 -76.5641 110° East 483 556 39,000  Level FlightAware ADS-B
07:16PM 41.5136 -76.4755 110° East 482 555 39,000 -120 Level FlightAware ADS-B
07:17PM 41.4895 -76.3893 110° East 483 556 38,900 -1,020 Descending FlightAware ADS-B
07:17PM 41.4658 -76.3047 110° East 484 557 38,000 -2,220 Descending FlightAware ADS-B
07:18PM 41.4411 -76.2163 110° East 493 567 36,700 -2,640 Descending FlightAware ADS-B
07:19PM 41.4166 -76.1301 111° Southeast 499 574 35,300 -3,000 Descending FlightAware ADS-B
07:19PM 41.3913 -76.0414 111° Southeast 508 585 33,700 -3,300 Descending FlightAware ADS-B
07:20PM 41.3658 -75.9514 111° Southeast 510 587 32,000 -3,300 Descending FlightAware ADS-B
07:20PM 41.3410 -75.8639 111° Southeast 504 580 30,400 -2,940 Descending FlightAware ADS-B
07:21PM 41.3165 -75.7777 111° Southeast 490 564 29,100 -2,400 Descending FlightAware ADS-B
07:21PM 41.2914 -75.6938 112° Southeast 478 550 28,000 -2,220 Descending FlightAware ADS-B
07:22PM 41.2653 -75.6129 113° Southeast 467 537 26,900 -2,160 Descending FlightAware ADS-B
07:22PM 41.2377 -75.5310 114° Southeast 458 527 25,800 -2,040 Descending FlightAware ADS-B
07:23PM 41.2114 -75.4543 114° Southeast 462 532 24,800 -2,220 Descending FlightAware ADS-B
07:23PM 41.1831 -75.3716 114° Southeast 470 541 23,600 -1,740 Descending FlightAware ADS-B
07:24PM 41.1553 -75.2897 114° Southeast 461 531 23,000 -600 Descending FlightAware ADS-B
07:24PM 41.1282 -75.2100 114° Southeast 465 535 23,000 -720 Level FlightAware ADS-B
07:25PM 41.1017 -75.1328 114° Southeast 461 531 22,300 -1,200 Descending FlightAware ADS-B
07:25PM 41.0751 -75.0552 114° Southeast 460 529 21,800 -840 Descending FlightAware ADS-B
07:26PM 41.0484 -74.9776 115° Southeast 456 525 21,500 -720 Descending FlightAware ADS-B
07:26PM 41.0284 -74.9203 115° Southeast 457 526 21,200 -780 Descending FlightAware ADS-B
07:26PM 41.0164 -74.8789 111° Southeast 463 533 21,000 -600 Descending FlightAware ADS-B
07:26PM 41.0121 -74.8610 108° East 465 535 21,000 -420 Level FlightAware ADS-B
07:27PM 41.0072 -74.8358 104° East 468 539 20,900 -600 Descending FlightAware ADS-B
07:27PM 40.9957 -74.7510 100° East 470 541 20,600 -600 Descending FlightAware ADS-B
07:28PM 40.9860 -74.6636 98° East 468 539 20,300 -540 Descending FlightAware ADS-B
07:28PM 40.9769 -74.5787 98° East 465 535 20,100 -540 Descending FlightAware ADS-B
07:29PM 40.9673 -74.4925 98° East 462 532 19,800 -600 Descending FlightAware ADS-B
07:29PM 40.9574 -74.4062 99° East 460 529 19,500 -780 Descending FlightAware ADS-B
07:30PM 40.9490 -74.3362 99° East 443 510 19,100 -720 Descending FlightAware ADS-B
07:30PM 40.9406 -74.2973 106° East 421 484 19,000 -180 Descending FlightAware ADS-B
07:30PM 40.9237 -74.2319 109° East 390 449 19,000  Level FlightAware ADS-B
07:30PM 40.9188 -74.2153 111° Southeast 379 436 19,000  Level FlightAware ADS-B
07:31PM 40.9093 -74.1940 121° Southeast 363 418 19,000 -480 Level FlightAware ADS-B
07:31PM 40.8942 -74.1710 131° Southeast 345 397 18,800 -1,380 Descending FlightAware ADS-B
07:31PM 40.8609 -74.1265 135° Southeast 342 394 18,000 -1,740 Descending FlightAware ADS-B
07:31PM 40.8472 -74.1104 138° Southeast 335 386 17,600 -1,740 Descending FlightAware ADS-B
07:32PM 40.8130 -74.0776 144° Southeast 327 376 16,900 -1,500 Descending FlightAware ADS-B
07:32PM 40.8111 -74.0757 143° Southeast 326 375 16,900 -1,380 Level FlightAware ADS-B
07:32PM 40.8027 -74.0690 149° Southeast 321 369 16,700 -1,500 Descending FlightAware ADS-B
07:32PM 40.7962 -74.0643 151° Southeast 317 365 16,600 -1,500 Descending FlightAware ADS-B
07:33PM 40.7610 -74.0417 154° Southeast 311 358 15,900 -1,680 Descending FlightAware ADS-B
07:33PM 40.7480 -74.0336 155° Southeast 311 358 15,600 -1,620 Descending FlightAware ADS-B
07:33PM 40.7220 -74.0180 156° South 308 354 15,100 -1,680 Descending FlightAware ADS-B
07:33PM 40.6970 -74.0022 154° Southeast 316 364 14,500 -1,560 Descending FlightAware ADS-B
07:34PM 40.6789 -73.9830 141° Southeast 324 373 14,200 -1,440 Descending FlightAware ADS-B
07:34PM 40.6462 -73.9424 137° Southeast 323 372 13,400 -1,260 Descending FlightAware ADS-B
07:35PM 40.6094 -73.8977 137° Southeast 318 366 12,900 -1,200 Descending FlightAware ADS-B
07:35PM 40.5770 -73.8583 137° Southeast 317 365 12,200 -1,500 Descending FlightAware ADS-B
07:36PM 40.5433 -73.8184 138° Southeast 317 365 11,400 -1,680 Descending FlightAware ADS-B
07:36PM 40.5104 -73.7801 138° Southeast 314 361 10,500 -1,680 Descending FlightAware ADS-B
07:37PM 40.4876 -73.7540 139° Southeast 314 361 10,000 -1,560 Descending FlightAware ADS-B
07:37PM 40.4757 -73.7413 141° Southeast 313 360 9,700 -1,620 Descending FlightAware ADS-B
07:37PM 40.4712 -73.7358 137° Southeast 314 361 9,600 -1,680 Descending FlightAware ADS-B
07:37PM 40.4647 -73.7260 131° Southeast 315 362 9,400 -1,320 Descending FlightAware ADS-B
07:37PM 40.4597 -73.7148 120° Southeast 315 362 9,300 -1,020 Descending FlightAware ADS-B
07:37PM 40.4570 -73.7059 112° Southeast 314 361 9,200 -1,380 Descending FlightAware ADS-B
07:37PM 40.4554 -73.6982 105° East 314 361 9,100 -1,200 Descending FlightAware ADS-B
07:38PM 40.4518 -73.6675 99° East 307 353 8,800 -1,260 Descending FlightAware ADS-B
07:38PM 40.4494 -73.6455 98° East 305 351 8,500 -1,380 Descending FlightAware ADS-B
07:38PM 40.4491 -73.6345 92° East 302 348 8,400 -1,680 Descending FlightAware ADS-B
07:38PM 40.4499 -73.6239 84° East 299 344 8,200 -1,620 Descending FlightAware ADS-B
07:38PM 40.4534 -73.6072 75° East 295 339 8,000 -1,440 Descending FlightAware ADS-B
07:38PM 40.4601 -73.5816 71° East 293 337 7,600 -1,380 Descending FlightAware ADS-B
07:39PM 40.4656 -73.5627 69° East 289 333 7,400 -1,140 Descending FlightAware ADS-B
07:39PM 40.4681 -73.5564 62° Northeast 286 329 7,300 -1,740 Descending FlightAware ADS-B
07:39PM 40.4707 -73.5513 56° Northeast 283 326 7,200 -1,200 Descending FlightAware ADS-B
07:39PM 40.4814 -73.5380 43° Northeast 274 315 7,000 -1,140 Descending FlightAware ADS-B
07:39PM 40.4862 -73.5337 34° Northeast 270 311 6,900 -540 Descending FlightAware ADS-B
07:39PM 40.5061 -73.5179 31° Northeast 262 302 6,800 -840 Descending FlightAware ADS-B
07:40PM 40.5304 -73.4994 30° Northeast 260 299 6,300 -1,620 Descending FlightAware ADS-B
07:40PM 40.5543 -73.4841 26° Northeast 256 295 5,600 -1,920 Descending FlightAware ADS-B
07:41PM 40.6090 -73.4920 354° North 227 261 4,000 -1,500 Descending FlightAware
07:41PM 40.6390 -73.4990 350° North 223 257 3,600 -840 Descending FlightAware
07:42PM 40.6540 -73.5050 343° North 212 244 3,400 -720 Descending FlightAware
07:42PM 40.6610 -73.5130 319° Northwest 204 235 3,300 -600 Descending FlightAware
07:42PM 40.6780 -73.5410 309° West 186 214 3,000 -720 Descending FlightAware
07:43PM 40.6930 -73.5660 308° West 172 198 2,600 -900 Descending FlightAware
07:43PM 40.7050 -73.5870 307° West 170 196 2,200 -900 Descending FlightAware
07:44PM 40.7160 -73.6150 297° West 166 191 1,800 -600 Descending FlightAware
07:44PM 40.7190 -73.6370 280° West 162 186 1,700  Descending FlightAware
07:44PM 40.7180 -73.6530 265° West 137 158 1,800 -300 Climbing FlightAware
07:45PM 40.7130 -73.6740 253° West 117 135 1,500 -600 Descending FlightAware
07:45PM 40.7060 -73.6890 238° Southwest 116 133 1,300 -480 Descending FlightAware
07:46PM 40.6960 -73.7060 232° Southwest 122 140 1,100 -540 Descending FlightAware
07:46PM 40.6890 -73.7140 221° Southwest 120 138 900 -780 Descending FlightAware
07:46PM 40.6770 -73.7230 210° Southwest 123 142 600 -660 Descending FlightAware
07:47PM 40.6620 -73.7350 211° Southwest 125 144 300 -600 Descending FlightAware
07:47PM 40.6500 -73.7440 210° Southwest 117 135 -720 Descending FlightAware
07:48PM 40.6430 -73.7490 208° Southwest 119 137  Level FlightAware